Wind_Speed
5 5 5 5 6 7 8 9 9 9 9 10 11 10 9 9 9 9 9 10 11 11 11 11 9 9 9 9 8 8 7 7 7 6 5 5 6 6 6 6 6 6 6
5 4 4 5 6 6 7 8 9 9 9 9 10 9 9 9 8 8 10 11 11 11 11 10 10 9 8 8 7 7 7 7 6 6 5 6 6 6 6 6 6 6 6
5 4 4 5 6 6 6 7 8 9 9 10 9 9 9 9 9 10 10 10 10 10 10 10 10 9 8 8 7 7 7 7 6 6 6 5 6 6 7 6 6 6 6
5 4 4 5 6 6 7 7 8 8 9 9 9 9 10 9 10 10 10 10 11 11 10 10 10 9 8 8 7 7 7 6 6 6 5 5 6 6 6 6 6 6 6
5 4 4 5 6 6 7 7 7 8 7 8 8 9 9 9 10 10 10 10 11 10 9 9 9 8 8 7 7 7 7 6 7 7 6 6 6 5 6 6 6 6 6
6 5 5 5 5 6 6 7 7 7 7 8 9 9 9 9 10 10 10 10 10 9 9 9 8 7 7 6 6 6 6 7 7 6 6 5 5 5 5 5 5 5 5
7 6 5 5 5 5 6 7 7 7 7 8 8 9 10 10 10 10 10 9 9 9 9 8 7 7 7 6 6 6 7 7 6 6 6 5 5 5 4 4 4 4 4
9 7 7 5 5 5 5 6 6 7 8 8 9 9 9 10 10 10 10 9 8 8 8 7 7 7 6 6 6 7 7 6 5 6 5 6 6 5 4 4 4 4 3
10 8 7 7 6 5 5 6 6 7 8 8 9 9 9 9 9 10 9 9 8 8 7 7 7 7 6 6 6 6 6 6 5 5 5 5 5 5 4 4 4 4 3
11 9 8 7 6 6 6 7 7 8 8 8 8 9 8 8 8 8 8 8 8 8 7 7 7 6 6 6 5 6 6 6 5 5 5 5 5 4 4 4 4 3 3
12 10 9 7 6 5 5 6 7 7 7 7 8 9 8 8 7 7 7 8 8 8 7 7 7 6 5 5 6 6 6 6 5 5 5 4 4 3 3 3 3 3 3
12 11 10 8 7 6 6 6 6 6 7 7 7 8 8 7 7 7 7 7 7 7 7 7 6 5 5 5 6 5 6 5 5 4 4 4 4 3 3 3 3 3 3
12 11 10 9 8 7 6 5 6 6 6 6 6 7 7 7 7 6 6 6 6 7 7 6 5 5 5 5 5 5 6 5 5 4 3 4 3 3 3 3 4 4 4
12 11 10 10 9 8 6 5 5 5 5 5 6 6 7 7 6 6 6 6 6 6 6 5 5 5 5 4 5 5 5 5 4 3 3 3 3 3 3 4 4 4 4
12 11 11 10 9 9 7 6 5 4 4 5 5 5 6 6 5 6 5 5 5 5 5 4 4 4 4 4 4 4 4 3 3 3 3 3 3 3 4 4 4 4 5
12 12 11 10 10 9 8 7 6 5 4 4 4 5 5 5 5 5 5 5 5 4 5 5 4 4 4 4 4 3 3 3 3 3 4 3 4 4 5 5 5 5 6
13 12 11 10 10 9 8 8 7 6 5 4 4 4 4 5 5 4 4 5 5 5 5 4 4 4 4 4 4 4 3 3 3 4 4 4 5 5 6 6 7 7 7
13 13 12 11 11 10 9 8 7 7 6 5 4 3 3 3 3 4 5 5 5 5 5 4 4 4 4 4 5 4 4 3 4 5 5 5 6 6 7 7 7 8 8
13 13 13 12 11 10 10 8 7 6 6 6 5 4 3 3 2 2 4 4 4 5 5 4 4 4 4 5 5 5 4 4 5 5 5 6 7 7 7 7 8 9 10
13 13 12 11 10 10 9 9 8 6 6 5 4 3 2 2 2 2 3 3 4 4 5 5 5 5 5 5 5 5 5 5 6 6 7 7 8 8 9 9 10 10 10
12 12 12 11 10 9 9 9 8 7 6 5 5 4 3 2 1 1 2 2 2 3 4 5 5 5 5 5 5 6 6 6 7 7 8 8 8 9 10 10 10 11 11
11 11 11 10 10 9 9 9 8 7 7 5 4 4 4 2 1 0 1 1 1 2 3 4 4 5 6 7 7 7 7 8 7 8 9 9 10 10 10 11 11 12 12
10 10 10 9 9 9 9 8 8 7 7 6 5 5 4 3 2 1 2 2 2 3 3 4 5 6 6 6 7 7 8 8 9 10 10 10 11 11 11 12 12 12 13
9 9 9 9 9 8 8 8 7 7 7 6 6 5 4 4 4 3 3 3 3 3 4 4 5 6 6 7 7 7 8 9 10 10 11 11 11 11 12 12 13 13 14
9 9 9 9 8 8 8 8 8 7 6 7 7 6 5 4 4 4 4 4 3 4 4 5 6 6 7 7 7 8 8 9 10 11 11 12 12 12 13 13 13 14 14
9 8 8 8 8 8 8 8 7 7 7 6 6 6 6 6 5 5 5 5 5 5 5 6 7 7 8 8 8 9 9 10 11 11 11 12 13 14 14 14 14 15 15
Wind_Direction
96 98 104 101 114 114 120 120 122 127 132 136 138 135 137 139 139 139 137 137 139 142 141 137 135 137 142 141 139 140 138 133 133 135 139 140 137 136 134 135 133 132 128
87 92 107 114 113 118 125 130 131 131 132 137 139 140 140 138 137 136 138 139 141 144 144 142 139 139 142 143 143 145 140 133 130 134 140 134 132 136 134 130 131 132 127
72 81 104 120 125 129 133 130 128 126 130 135 136 137 140 140 138 140 141 140 143 147 146 144 143 144 145 144 141 142 140 133 129 133 137 133 133 133 129 125 127 134 129
70 73 98 121 127 134 138 135 129 129 132 135 137 136 137 138 140 144 145 141 140 141 141 143 146 148 148 145 143 143 142 139 138 138 137 131 130 128 128 125 120 127 128
67 75 100 116 125 135 140 140 136 133 132 132 134 136 137 139 140 142 141 139 136 137 140 139 145 146 143 143 143 140 138 136 141 138 135 130 126 128 130 129 124 128 128
66 73 97 113 129 129 134 138 139 134 132 134 134 134 139 143 143 142 134 136 137 137 139 139 141 145 140 139 142 139 141 142 144 140 135 135 137 137 140 136 131 128 126
63 72 85 93 107 130 130 133 137 139 136 135 136 139 141 138 136 142 139 138 139 139 137 137 137 142 143 144 140 138 144 149 151 148 144 147 147 145 146 150 145 139 136
60 69 77 86 100 116 129 137 137 140 139 138 138 146 147 143 140 141 140 141 141 140 139 138 141 143 144 146 140 140 146 149 148 150 155 156 155 157 158 160 158 156 157
60 67 72 76 91 108 122 136 129 136 137 140 143 145 145 141 139 144 143 141 141 144 145 145 148 146 147 150 152 149 152 153 152 160 157 155 151 151 157 165 167 169 172
59 64 66 69 80 100 115 128 133 130 135 141 142 144 145 141 139 139 142 142 143 146 148 145 147 147 149 155 160 157 151 149 151 155 159 161 160 160 169 171 173 174 171
57 61 63 68 73 92 111 125 133 132 132 136 143 146 148 142 141 141 143 143 143 145 146 147 153 153 154 154 153 153 150 151 156 158 167 170 174 183 188 180 178 176 181
55 59 64 68 75 86 101 120 129 129 130 132 142 149 149 146 146 147 145 145 146 148 147 147 154 157 155 151 153 156 154 154 156 162 172 175 180 191 196 196 200 203 203
54 56 61 67 75 82 93 108 119 128 132 132 138 150 153 148 146 147 147 147 148 151 151 152 157 158 152 149 155 155 155 155 158 162 171 178 192 204 209 222 230 227 225
53 55 57 62 67 72 83 97 108 126 135 137 143 145 149 147 146 149 151 149 148 148 149 159 165 164 157 150 153 152 154 157 162 171 183 194 211 219 226 237 243 242 243
52 53 56 59 61 63 70 79 88 110 131 142 146 146 152 155 155 156 161 160 157 161 162 165 165 164 163 158 159 162 162 164 175 194 208 218 228 232 238 245 253 253 255
49 50 53 55 57 58 62 70 73 84 112 126 139 147 155 162 162 168 170 171 175 175 173 171 165 174 174 174 180 180 183 194 207 224 229 233 240 245 249 256 262 264 263
44 47 49 51 53 56 60 66 67 73 86 104 121 143 156 168 174 178 180 181 183 179 176 175 180 186 188 192 200 201 208 224 235 240 243 246 254 260 262 265 267 266 266
42 43 46 48 50 52 55 57 61 72 79 86 98 121 147 161 176 184 182 182 184 187 186 187 192 195 201 210 212 212 222 241 248 252 253 256 262 265 267 266 267 268 267
40 39 41 44 47 50 50 49 53 66 74 78 84 97 116 131 143 161 185 186 193 198 200 202 204 209 218 224 222 224 237 251 257 260 260 263 265 268 268 267 269 272 271
37 37 38 40 45 47 47 45 50 59 65 67 69 81 106 128 137 148 177 192 199 203 206 211 217 223 234 233 233 242 253 262 269 269 271 271 270 271 270 271 271 273 275
31 32 34 36 38 41 41 42 43 46 47 50 54 58 74 98 123 143 179 200 202 206 216 219 222 227 238 246 248 255 264 272 277 272 274 276 274 272 272 273 275 276 276
26 27 29 30 30 31 33 35 34 33 34 36 38 41 50 64 81 70 294 256 234 227 225 229 234 236 241 247 252 259 268 275 280 278 277 279 279 275 275 276 278 280 280
19 21 24 24 23 24 24 25 28 30 33 31 26 25 25 25 10 313 303 308 282 255 246 250 249 250 256 257 257 259 264 270 276 279 277 279 281 279 277 278 280 282 280
7 14 17 18 18 17 18 18 19 21 23 20 16 12 9 6 357 340 333 330 286 269 263 263 263 263 264 264 266 270 275 277 278 281 282 282 282 282 280 279 280 281 281
358 4 10 12 13 13 14 17 17 16 16 15 14 10 3 352 346 343 328 319 313 283 269 270 271 272 273 271 272 276 280 283 281 281 282 282 283 283 284 282 281 281 281
346 351 358 2 5 8 7 8 8 10 11 10 10 10 2 354 347 327 322 309 298 292 281 276 275 273 275 274 274 276 279 283 283 282 280 280 280 282 284 284 284 282 281
Height
5875 5874 5873 5873 5873 5873 5873 5874 5874 5875 5876 5876 5877 5878 5879 5879 5880 5881 5882 5883 5884 5885 5885 5886 5887 5888 5889 5890 5891 5892 5893 5893 5894 5895 5895 5895 5896 5896 5897 5897 5898 5898 5898
5876 5875 5875 5874 5874 5875 5874 5874 5875 5876 5876 5877 5878 5878 5879 5880 5881 5881 5882 5883 5884 5885 5886 5887 5888 5889 5890 5891 5892 5892 5893 5894 5895 5895 5896 5896 5896 5897 5897 5898 5898 5899 5899
5876 5876 5875 5875 5876 5876 5876 5876 5876 5876 5877 5877 5878 5879 5880 5880 5881 5882 5883 5883 5885 5886 5887 5887 5889 5890 5891 5891 5892 5893 5894 5894 5895 5896 5896 5897 5897 5897 5898 5898 5899 5899 5900
5877 5877 5876 5876 5877 5877 5877 5877 5877 5877 5878 5878 5879 5880 5880 5881 5882 5882 5883 5884 5885 5886 5887 5888 5889 5890 5891 5892 5893 5893 5894 5895 5896 5896 5897 5897 5898 5898 5899 5899 5900 5900 5901
5878 5878 5877 5877 5878 5877 5877 5878 5878 5878 5879 5879 5880 5880 5881 5882 5882 5883 5883 5885 5886 5887 5888 5889 5890 5891 5892 5892 5893 5894 5895 5896 5896 5897 5897 5898 5899 5899 5900 5900 5901 5901 5902
5879 5878 5878 5878 5878 5878 5878 5879 5879 5879 5880 5880 5880 5881 5882 5882 5883 5884 5884 5885 5886 5887 5888 5889 5890 5891 5892 5893 5894 5894 5895 5896 5897 5898 5898 5898 5899 5900 5901 5901 5902 5902 5903
5880 5879 5879 5879 5878 5879 5879 5880 5880 5880 5881 5881 5881 5882 5883 5883 5884 5884 5885 5886 5887 5888 5889 5890 5891 5892 5893 5894 5894 5895 5896 5897 5897 5898 5899 5899 5900 5901 5902 5902 5902 5903 5903
5881 5881 5880 5880 5880 5880 5880 5881 5881 5881 5881 5882 5882 5883 5884 5884 5885 5885 5886 5887 5888 5889 5890 5891 5892 5893 5893 5894 5895 5895 5896 5897 5898 5899 5899 5900 5901 5901 5902 5902 5903 5903 5904
5883 5882 5882 5881 5881 5881 5881 5881 5882 5881 5882 5882 5883 5883 5884 5885 5885 5886 5887 5888 5889 5890 5890 5891 5892 5893 5894 5895 5895 5896 5897 5897 5898 5899 5900 5900 5901 5902 5902 5903 5903 5904 5904
5885 5884 5883 5883 5882 5882 5882 5882 5882 5883 5883 5883 5884 5884 5885 5885 5886 5887 5888 5889 5889 5890 5891 5892 5893 5893 5894 5895 5896 5896 5897 5898 5899 5899 5900 5901 5901 5902 5902 5903 5903 5904 5904
5888 5886 5885 5884 5884 5883 5883 5883 5883 5884 5884 5884 5884 5885 5885 5886 5886 5887 5889 5889 5890 5891 5891 5892 5893 5894 5895 5895 5896 5897 5897 5898 5899 5900 5900 5901 5902 5902 5902 5903 5903 5904 5904
5890 5888 5887 5886 5885 5885 5884 5884 5884 5884 5884 5885 5885 5885 5886 5887 5887 5888 5889 5890 5890 5891 5892 5893 5894 5894 5895 5895 5896 5897 5898 5898 5899 5900 5900 5901 5902 5902 5902 5902 5903 5903 5904
5892 5891 5889 5888 5887 5886 5886 5885 5885 5886 5886 5886 5886 5887 5887 5888 5888 5889 5890 5890 5891 5891 5892 5893 5894 5895 5895 5896 5896 5897 5898 5898 5899 5900 5900 5901 5902 5902 5902 5902 5903 5903 5903
5894 5893 5891 5890 5889 5888 5887 5887 5886 5887 5887 5887 5887 5887 5888 5888 5889 5889 5890 5890 5891 5892 5892 5893 5894 5895 5895 5896 5897 5897 5898 5899 5899 5900 5900 5901 5901 5901 5902 5902 5902 5902 5902
5896 5895 5893 5892 5891 5889 5889 5888 5887 5887 5887 5887 5888 5888 5888 5889 5889 5890 5890 5891 5891 5892 5893 5893 5894 5895 5896 5896 5897 5898 5898 5899 5899 5900 5900 5901 5901 5901 5901 5901 5901 5901 5902
5898 5897 5895 5894 5892 5891 5890 5889 5888 5888 5888 5888 5888 5888 5889 5889 5890 5890 5891 5891 5892 5892 5893 5893 5894 5895 5896 5896 5897 5898 5898 5899 5899 5900 5900 5900 5900 5900 5900 5900 5900 5900 5900
5900 5899 5897 5895 5894 5893 5891 5890 5889 5889 5888 5888 5888 5888 5889 5889 5890 5890 5891 5891 5892 5892 5893 5893 5894 5895 5895 5896 5897 5897 5898 5898 5899 5899 5899 5899 5899 5899 5899 5899 5899 5899 5899
5902 5900 5899 5897 5896 5894 5893 5892 5891 5890 5889 5889 5889 5889 5889 5889 5890 5890 5891 5891 5892 5892 5893 5893 5894 5894 5895 5896 5896 5897 5897 5897 5898 5898 5898 5898 5898 5898 5898 5898 5898 5898 5898
5904 5902 5900 5899 5897 5896 5894 5893 5892 5891 5891 5890 5890 5889 5889 5889 5890 5890 5890 5891 5891 5892 5893 5893 5893 5894 5894 5895 5895 5896 5896 5896 5897 5896 5896 5896 5896 5896 5896 5896 5896 5896 5896
5906 5904 5902 5901 5899 5897 5896 5894 5893 5892 5892 5891 5891 5890 5890 5890 5890 5890 5890 5891 5891 5891 5892 5892 5893 5893 5893 5894 5894 5895 5895 5895 5895 5895 5895 5895 5895 5895 5895 5894 5894 5894 5893
5908 5906 5904 5902 5901 5899 5898 5896 5895 5894 5893 5892 5892 5891 5890 5890 5890 5890 5890 5891 5891 5891 5891 5892 5892 5892 5893 5893 5893 5894 5894 5894 5894 5894 5893 5893 5893 5893 5892 5892 5892 5891 5891
5909 5907 5905 5903 5902 5900 5899 5897 5896 5895 5894 5893 5892 5891 5891 5890 5890 5890 5890 5890 5890 5890 5891 5891 5891 5891 5892 5892 5892 5892 5892 5893 5892 5892 5891 5891 5891 5891 5890 5890 5890 5889 5888
5910 5908 5906 5904 5903 5901 5900 5898 5897 5896 5895 5894 5893 5892 5891 5890 5890 5890 5890 5890 5890 5890 5890 5890 5890 5890 5891 5891 5890 5891 5891 5891 5890 5890 5889 5889 5889 5888 5888 5888 5887 5886 5885
5911 5909 5907 5905 5904 5902 5900 5899 5898 5897 5895 5894 5893 5892 5891 5890 5890 5890 5889 5889 5889 5889 5889 5889 5889 5889 5889 5889 5889 5889 5889 5888 5888 5888 5887 5886 5886 5885 5885 5885 5884 5883 5882
5911 5909 5907 5906 5904 5903 5901 5900 5898 5897 5896 5894 5893 5892 5891 5890 5890 5889 5889 5888 5888 5887 5888 5888 5888 5887 5887 5887 5886 5886 5886 5886 5885 5885 5884 5883 5883 5882 5882 5881 5881 5880 5879
5911 5909 5908 5906 5904 5903 5902 5900 5899 5897 5896 5894 5893 5892 5891 5890 5889 5889 5888 5887 5887 5886 5886 5886 5885 5885 5885 5884 5884 5884 5883 5883 5882 5881 5881 5880 5879 5879 5878 5877 5876 5876 5874